[[{"header":{"parameterUnit":"m.s-1","parameterCategory":2,"la1":30.2991,"la2":30.254,"lo1":-89.0895,"lo2":-89.0444,"dy":0.0017,"dx":0.0017,"nx":28,"ny":28,"refTime":"2023-11-09T03:00:00:Z","depth":"0","parameterNumber":2,"parameterNumberName":"U-component_of_CURRENTS"},"data":[0,0,0,0,0,0,0,0,0,0,0,0,0,0,0,0,0,0,0,0,0,0,0,0,0,0,0,0,0,0,0,0,0,0,0,0,0,0,0,0,0,0,0,0,0,0,0,0,0,0,0,0,0,0,0,0,0,0,-0.2761,-0.2761,0,-0.2686,-0.2685,-0.2684,-0.2648,-0.2648,-0.2648,-0.2648,-0.2518,-0.2515,-0.2511,0,0,0,0,0,0,0,0,0,0,0,0,0,-0.2741,-0.2742,-0.2762,-0.2761,-0.276,-0.2686,-0.2685,-0.2684,-0.2648,-0.2648,-0.2648,-0.2648,-0.252,-0.2515,-0.2511,0,0,0,0,0,0,0,0,0,0,0,0,0,-0.2716,-0.2743,-0.2762,-0.2734,-0.273,-0.2686,-0.2685,-0.2683,-0.2647,-0.2648,-0.2648,-0.2648,-0.2521,-0.2516,-0.2511,-0.2474,0,0,-0.2494,-0.2492,0,0,0,0,0,0,0,0,-0.2717,-0.2716,-0.2739,-0.2735,-0.2732,-0.2677,-0.263,-0.2611,-0.2647,-0.2678,-0.2648,-0.2648,-0.2567,-0.2558,-0.2543,-0.2468,-0.2463,-0.2494,-0.2491,-0.2488,-0.2487,0,0,0,0,0,0,0,-0.2719,-0.2718,-0.2731,-0.2738,-0.2734,-0.2679,-0.2677,-0.2626,-0.2621,-0.2675,-0.2673,-0.2666,-0.2565,-0.2548,-0.2539,-0.2461,-0.2494,-0.2489,-0.2486,-0.2484,-0.2376,-0.2376,0,0,0,0,0,0,-0.2738,-0.2721,-0.2733,-0.2728,-0.2726,-0.268,-0.2677,-0.2694,-0.2622,-0.2612,-0.2666,-0.2664,-0.2557,-0.2545,-0.2534,-0.2514,-0.2488,-0.2483,-0.248,-0.2376,-0.2376,-0.2376,0,0,0,0,0,0,-0.2738,-0.274,-0.2736,-0.2722,-0.2718,-0.2681,-0.2699,-0.2692,-0.2683,-0.2616,-0.2605,-0.2665,-0.2557,-0.2542,-0.2505,-0.2508,-0.2481,-0.2476,-0.2375,-0.2376,-0.2376,-0.2456,0,0,0,0,0,0,-0.2738,-0.2742,-0.2759,-0.2724,-0.2719,-0.2731,-0.2699,-0.2691,-0.2678,-0.2676,-0.2611,-0.2599,-0.2556,-0.2514,-0.25,-0.25,-0.2472,-0.2375,-0.2375,-0.2376,-0.2453,-0.2459,-0.2464,0,0,0,0,0,-0.2738,-0.2766,-0.2761,-0.2762,-0.2746,-0.2732,-0.2725,-0.2697,-0.2679,-0.2686,-0.264,-0.2601,-0.2508,-0.251,-0.2494,-0.2492,-0.2375,-0.2375,-0.2376,-0.245,-0.2458,-0.2464,0,0,0,0,0,0,-0.2755,-0.2763,-0.2758,-0.2784,-0.2769,-0.2727,-0.2727,-0.2704,-0.2672,-0.2667,-0.2603,-0.2588,-0.2557,-0.2514,-0.2518,-0.2464,-0.2435,-0.2433,-0.2497,-0.2504,-0.2509,-0.252,-0.2467,0,0,0,0,0,-0.2771,-0.28,-0.2786,-0.2803,-0.2802,-0.2765,-0.2754,-0.2737,-0.2703,-0.269,-0.2642,-0.259,-0.2545,-0.2519,-0.2476,-0.2442,-0.2389,-0.2431,-0.2437,-0.2442,-0.2441,-0.2384,-0.2384,-0.2379,-0.2379,-0.2379,0,0,-0.2774,-0.2787,-0.2797,-0.2809,-0.2792,-0.2794,-0.276,-0.2754,-0.2743,-0.2678,-0.2651,-0.2609,-0.2542,-0.2511,-0.2493,-0.2476,-0.2413,-0.2443,-0.2448,-0.2443,-0.2384,-0.2385,-0.2385,-0.2379,-0.2379,-0.2379,0,0,-0.2801,-0.2816,-0.2849,-0.2848,-0.2843,-0.2819,-0.2824,-0.2794,-0.2773,-0.2744,-0.2695,-0.2658,-0.2589,-0.2544,-0.251,-0.2518,-0.2449,-0.2507,-0.2538,-0.2484,-0.2483,-0.2483,-0.2405,-0.2396,-0.2506,-0.2506,-0.2507,0,-0.2803,-0.2849,-0.285,-0.2878,-0.2873,-0.2837,-0.2851,-0.2824,-0.2782,-0.2756,-0.2749,-0.2649,-0.26,-0.2547,-0.2558,-0.253,-0.2483,-0.2519,-0.2491,-0.249,-0.2488,-0.2407,-0.2397,-0.251,-0.251,-0.251,-0.2509,0,-0.2854,-0.2884,-0.2899,-0.2927,-0.2922,-0.2929,-0.2898,-0.288,-0.2846,-0.2809,-0.2761,-0.2704,-0.2637,-0.2626,-0.2593,-0.2555,-0.2521,-0.251,-0.2477,-0.2493,-0.2407,-0.2395,-0.2516,-0.2515,-0.2513,-0.2512,0,0,-0.2856,-0.2925,-0.2927,-0.2936,-0.2949,-0.2936,-0.293,-0.2896,-0.2858,-0.2832,-0.278,-0.2734,-0.2698,-0.2659,-0.2615,-0.2581,-0.2527,-0.255,-0.2545,-0.2477,-0.2389,-0.2297,-0.2275,-0.2518,-0.2517,-0.2516,-0.2331,0,-0.2884,-0.2951,-0.2975,-0.2989,-0.3005,-0.298,-0.2962,-0.2924,-0.2879,-0.2818,-0.2768,-0.2701,-0.2709,-0.2666,-0.2644,-0.2548,-0.2501,-0.2577,-0.2379,-0.2372,-0.2293,-0.226,-0.2254,-0.2083,-0.2318,-0.2316,-0.2315,0,-0.2912,-0.2953,-0.3004,-0.3005,-0.3005,-0.3003,-0.2946,-0.2926,-0.2851,-0.2812,-0.2767,-0.2707,-0.2644,-0.2645,-0.2522,-0.2572,-0.2489,-0.2429,-0.242,-0.2298,-0.2258,-0.2106,-0.2051,-0.2025,-0.2296,-0.2297,-0.2298,0,-0.2891,-0.2948,-0.2987,-0.2996,-0.3008,-0.2997,-0.2977,-0.292,-0.2867,-0.2793,-0.2731,-0.2677,-0.2589,-0.2536,-0.2416,-0.2462,-0.2262,-0.2295,-0.2133,-0.2124,-0.2058,-0.2046,-0.1958,-0.2198,-0.2198,-0.2199,-0.2199,0,-0.2903,-0.2909,-0.2978,-0.299,-0.2964,-0.2986,-0.2918,-0.2894,-0.2832,-0.2735,-0.2717,-0.2618,-0.2557,-0.2434,-0.2383,-0.2199,-0.2223,-0.2117,-0.2067,-0.2083,-0.2076,-0.2001,-0.2017,-0.2192,-0.2193,-0.2195,-0.2196,0,-0.2849,-0.2918,-0.2932,-0.2968,-0.2957,-0.293,-0.2861,-0.2794,-0.2775,-0.2648,-0.2615,-0.2526,-0.2366,-0.2283,-0.2131,-0.2093,-0.1923,-0.1893,-0.1901,-0.1856,-0.1714,-0.1736,-0.156,-0.1517,-0.1699,-0.1696,-0.1693,0,-0.283,-0.2848,-0.2885,-0.2853,-0.286,-0.2814,-0.2748,-0.2744,-0.2665,-0.257,-0.2485,-0.2332,-0.2208,-0.1973,-0.1854,-0.1711,-0.1726,-0.161,-0.1705,-0.1679,-0.1667,-0.1693,-0.1674,-0.1642,-0.1639,-0.1636,-0.1634,0,-0.2727,-0.2751,-0.2745,-0.2713,-0.2665,-0.261,-0.2536,-0.2489,-0.2451,-0.2402,-0.2293,-0.2225,-0.1983,-0.183,-0.163,-0.1555,-0.1597,-0.1551,-0.1531,-0.1609,-0.1624,-0.1568,-0.178,-0.1612,-0.1614,-0.1616,-0.1617,-0.1618,-0.2587,-0.2551,-0.2536,-0.249,-0.2447,-0.2386,-0.2309,-0.2277,-0.2212,-0.214,-0.2136,-0.2045,-0.1862,-0.1596,-0.149,-0.1309,-0.1363,-0.132,-0.1341,-0.1363,-0.1348,-0.1489,-0.1267,-0.1267,-0.1267,-0.1267,-0.1268,0,-0.2345,-0.2323,-0.2283,-0.2222,-0.2142,-0.2198,-0.2118,-0.2057,-0.1993,-0.2003,-0.1971,-0.1829,-0.166,-0.1479,-0.1255,-0.1168,-0.1173,-0.1127,-0.1208,-0.1193,-0.1314,-0.1342,-0.1117,-0.1117,-0.1118,-0.1118,-0.1118,-0.1118,-0.2194,-0.207,-0.2082,-0.1914,-0.19,-0.1762,-0.1731,-0.1736,-0.1726,-0.17,-0.1673,-0.1669,-0.1445,-0.1335,-0.1143,-0.1089,-0.1068,-0.1035,-0.1005,-0.1161,-0.1183,-0.1205,-0.1235,-0.0992,-0.0992,-0.0901,-0.0901,-0.09]},{"header":{"parameterUnit":"m.s-1","parameterCategory":2,"la1":30.2991,"la2":30.254,"lo1":-89.0895,"lo2":-89.0444,"dy":0.0017,"dx":0.0017,"nx":28,"ny":28,"refTime":"2023-11-09T03:00:00:Z","depth":"0","parameterNumber":3,"parameterNumberName":"V-component_of_CURRENTS"},"data":[0,0,0,0,0,0,0,0,0,0,0,0,0,0,0,0,0,0,0,0,0,0,0,0,0,0,0,0,0,0,0,0,0,0,0,0,0,0,0,0,0,0,0,0,0,0,0,0,0,0,0,0,0,0,0,0,0,0,0.047,0.0472,0,0.0592,0.0593,0.0595,0.0628,0.0628,0.0627,0.0626,0.0691,0.0693,0.0695,0,0,0,0,0,0,0,0,0,0,0,0,0,0.0363,0.0364,0.047,0.0472,0.0473,0.0592,0.0593,0.0595,0.0628,0.0627,0.0627,0.0626,0.069,0.0693,0.0696,0,0,0,0,0,0,0,0,0,0,0,0,0,0.044,0.0364,0.047,0.0503,0.0507,0.0591,0.0594,0.0596,0.0629,0.0627,0.0626,0.0625,0.0689,0.0692,0.0696,0.0743,0,0,0.0707,0.0709,0,0,0,0,0,0,0,0,0.0435,0.0444,0.0497,0.0501,0.0506,0.0593,0.0579,0.0642,0.0629,0.0584,0.0626,0.0625,0.0653,0.0659,0.0687,0.0746,0.0749,0.0708,0.071,0.0712,0.0713,0,0,0,0,0,0,0,0.043,0.0439,0.0519,0.0498,0.0504,0.0545,0.0554,0.0592,0.0623,0.0588,0.059,0.0602,0.0655,0.0684,0.0689,0.0749,0.0708,0.0711,0.0713,0.0715,0.0861,0.0863,0,0,0,0,0,0,0.0409,0.0434,0.0516,0.0523,0.0466,0.0547,0.0557,0.0567,0.0624,0.0632,0.0603,0.0603,0.0678,0.0684,0.0691,0.0749,0.0711,0.0715,0.0717,0.0859,0.0861,0.0863,0,0,0,0,0,0,0.0407,0.0415,0.0511,0.0481,0.0495,0.055,0.0561,0.057,0.0596,0.0636,0.0643,0.0618,0.0677,0.0686,0.0731,0.0751,0.0717,0.072,0.0857,0.086,0.0862,0.0865,0,0,0,0,0,0,0.0403,0.0414,0.0416,0.0479,0.0496,0.0557,0.0562,0.0573,0.0605,0.0606,0.0652,0.0657,0.0677,0.0726,0.0735,0.0756,0.0723,0.0855,0.0859,0.0861,0.0862,0.0867,0.0871,0,0,0,0,0,0.0399,0.04,0.0415,0.0425,0.0497,0.0558,0.0571,0.0606,0.0606,0.0624,0.0657,0.0655,0.0752,0.073,0.0741,0.0763,0.0854,0.0858,0.0861,0.0861,0.0866,0.0871,0,0,0,0,0,0,0.0352,0.0406,0.0423,0.044,0.0495,0.0563,0.0579,0.0607,0.0651,0.0644,0.0679,0.0688,0.0734,0.0754,0.073,0.0817,0.0803,0.0808,0.0799,0.0804,0.0808,0.0787,0.0726,0,0,0,0,0,0.0344,0.0357,0.0424,0.0436,0.0461,0.0522,0.055,0.0577,0.0623,0.0641,0.068,0.072,0.0762,0.0784,0.0823,0.0873,0.0893,0.0895,0.0899,0.0903,0.0895,0.0938,0.0944,0.0876,0.0876,0.0875,0,0,0.0327,0.036,0.0366,0.0428,0.0468,0.0509,0.0535,0.0575,0.061,0.0641,0.0695,0.0733,0.0779,0.0833,0.0856,0.085,0.0941,0.0907,0.091,0.09,0.0942,0.0948,0.0954,0.0878,0.0878,0.0877,0,0,0.0305,0.0332,0.034,0.0389,0.045,0.0493,0.0502,0.0578,0.061,0.0669,0.0702,0.0752,0.0819,0.0864,0.089,0.0943,0.0958,0.0959,0.0966,0.1008,0.1013,0.1018,0.1077,0.1087,0.0964,0.0964,0.0964,0,0.0279,0.0307,0.0354,0.0387,0.0421,0.0482,0.0511,0.0562,0.0644,0.0676,0.0678,0.08,0.0832,0.091,0.0927,0.095,0.098,0.0939,0.101,0.1015,0.102,0.108,0.109,0.0964,0.0964,0.0964,0.0964,0,0.0273,0.0305,0.0316,0.0374,0.0419,0.0452,0.0529,0.0577,0.0617,0.0669,0.0751,0.0816,0.0884,0.0913,0.0932,0.0999,0.1013,0.1005,0.0989,0.1027,0.1088,0.1099,0.0965,0.0965,0.0965,0.0965,0,0,0.0181,0.0289,0.029,0.0331,0.0415,0.0454,0.0512,0.059,0.0632,0.0709,0.0771,0.0856,0.0892,0.0926,0.0976,0.1018,0.1086,0.1024,0.1025,0.1068,0.1195,0.1202,0.1215,0.1087,0.1088,0.1089,0.1233,0,0.0159,0.0213,0.0274,0.0332,0.0372,0.0454,0.0506,0.0582,0.0651,0.0728,0.0804,0.0876,0.09,0.0939,0.0986,0.1066,0.1112,0.1049,0.1165,0.1169,0.1157,0.1226,0.118,0.1303,0.1244,0.1246,0.1247,0,0.0121,0.0172,0.0218,0.0331,0.0353,0.0392,0.0488,0.0551,0.0664,0.0716,0.0802,0.0869,0.0972,0.0965,0.1115,0.1075,0.1127,0.1179,0.1186,0.1192,0.1195,0.1253,0.1325,0.1326,0.1264,0.1263,0.1262,0,0.0028,0.0131,0.0166,0.0203,0.0329,0.0362,0.0425,0.0533,0.0601,0.0712,0.0771,0.0889,0.0965,0.1047,0.1165,0.1142,0.1316,0.1297,0.1356,0.1359,0.1341,0.1338,0.1409,0.1373,0.1372,0.1372,0.1372,0,-0.0023,0.001,0.0127,0.0149,0.02,0.0302,0.0367,0.0445,0.0566,0.0658,0.0757,0.0861,0.0983,0.1106,0.1183,0.1324,0.1335,0.1374,0.1397,0.1345,0.1341,0.1356,0.1357,0.1378,0.1376,0.1375,0.1374,0,-0.0123,-0.0051,0.0005,0.0122,0.0158,0.019,0.0333,0.0403,0.0507,0.0633,0.0672,0.0854,0.1014,0.1143,0.1299,0.1359,0.1499,0.1509,0.1451,0.1464,0.1502,0.1505,0.1643,0.1692,0.1609,0.161,0.1611,0,-0.0163,-0.015,-0.0042,0.0005,0.006,0.0137,0.0208,0.0341,0.0438,0.0648,0.0719,0.0895,0.1055,0.1298,0.1394,0.154,0.1554,0.1586,0.152,0.1515,0.1536,0.1553,0.1586,0.1519,0.1519,0.1519,0.1519,0,-0.0226,-0.02,-0.0142,-0.0063,0.0012,0.0116,0.0234,0.0293,0.0476,0.0592,0.0799,0.0938,0.1161,0.1319,0.1477,0.1547,0.1589,0.1591,0.1598,0.1486,0.1498,0.1551,0.1427,0.1519,0.1519,0.1519,0.1519,0.1519,-0.0272,-0.0251,-0.0176,-0.0097,-0.0007,0.0115,0.02,0.0329,0.0468,0.0654,0.0812,0.098,0.12,0.1418,0.1511,0.1572,0.161,0.1585,0.1599,0.1627,0.1634,0.1519,0.1619,0.1619,0.162,0.162,0.162,0,-0.0304,-0.0257,-0.0191,-0.0084,0.0014,0.0084,0.0252,0.035,0.0495,0.0604,0.0781,0.0979,0.1193,0.1346,0.1488,0.1561,0.1596,0.1596,0.1586,0.163,0.1532,0.1481,0.1537,0.1537,0.1537,0.1537,0.1537,0.1537,-0.0309,-0.0266,-0.0221,-0.0076,0.0017,0.0181,0.0288,0.0409,0.0505,0.0631,0.0691,0.0768,0.0985,0.1335,0.1488,0.1522,0.1608,0.1615,0.1706,0.1573,0.1571,0.157,0.1521,0.1585,0.1585,0.1781,0.1782,0.1783]}],[{"header":{"parameterUnit":"m.s-1","parameterCategory":2,"la1":30.2991,"la2":30.254,"lo1":-89.0895,"lo2":-89.0444,"dy":0.0017,"dx":0.0017,"nx":28,"ny":28,"refTime":"2023-11-09T03:00:00:Z","depth":"2","parameterNumber":2,"parameterNumberName":"U-component_of_CURRENTS"},"data":[0,0,0,0,0,0,0,0,0,0,0,0,0,0,0,0,0,0,0,0,0,0,0,0,0,0,0,0,0,0,0,0,0,0,0,0,0,0,0,0,0,0,0,0,0,0,0,0,0,0,0,0,0,0,0,0,0,0,-0.266,-0.266,0,-0.2653,-0.2653,-0.2652,-0.2609,-0.2608,-0.2607,-0.2606,-0.2515,-0.2514,-0.2512,0,0,0,0,0,0,0,0,0,0,0,0,0,-0.2617,-0.2618,-0.266,-0.266,-0.266,-0.2653,-0.2653,-0.2652,-0.2609,-0.2608,-0.2606,-0.2605,-0.2515,-0.2514,-0.2512,0,0,0,0,0,0,0,0,0,0,0,0,0,-0.2625,-0.2618,-0.266,-0.2638,-0.2636,-0.2653,-0.2653,-0.2652,-0.2609,-0.2608,-0.2606,-0.2605,-0.2516,-0.2514,-0.2512,-0.2528,0,0,-0.2505,-0.2504,0,0,0,0,0,0,0,0,-0.2624,-0.2626,-0.2641,-0.264,-0.2637,-0.2631,-0.2604,-0.2607,-0.2609,-0.2619,-0.2606,-0.2604,-0.2547,-0.2543,-0.2545,-0.2524,-0.252,-0.2505,-0.2503,-0.2502,-0.2502,0,0,0,0,0,0,0,-0.2624,-0.2626,-0.2657,-0.2641,-0.2639,-0.2622,-0.2621,-0.2605,-0.2589,-0.2618,-0.2615,-0.2615,-0.2545,-0.2547,-0.2542,-0.2518,-0.2505,-0.2503,-0.2501,-0.2501,-0.2474,-0.2474,0,0,0,0,0,0,-0.2629,-0.2626,-0.2657,-0.2656,-0.2628,-0.2624,-0.2623,-0.2634,-0.2591,-0.2584,-0.2617,-0.2613,-0.2552,-0.2545,-0.2539,-0.2528,-0.2502,-0.25,-0.2499,-0.2473,-0.2474,-0.2475,0,0,0,0,0,0,-0.2628,-0.2632,-0.2657,-0.2641,-0.2643,-0.2626,-0.2638,-0.2634,-0.2625,-0.2592,-0.2582,-0.261,-0.255,-0.2542,-0.2522,-0.2525,-0.2499,-0.2497,-0.2472,-0.2473,-0.2474,-0.2525,0,0,0,0,0,0,-0.2627,-0.2633,-0.2639,-0.2642,-0.2644,-0.2669,-0.264,-0.2635,-0.2629,-0.2624,-0.2583,-0.2574,-0.2548,-0.2526,-0.252,-0.2522,-0.2496,-0.2472,-0.2473,-0.2474,-0.2522,-0.2527,-0.2532,0,0,0,0,0,-0.2626,-0.2643,-0.264,-0.2643,-0.2655,-0.267,-0.267,-0.2652,-0.263,-0.2635,-0.2605,-0.2575,-0.2529,-0.2525,-0.2518,-0.2519,-0.2471,-0.2473,-0.2474,-0.252,-0.2526,-0.2532,0,0,0,0,0,0,-0.2619,-0.264,-0.2637,-0.2656,-0.2663,-0.2662,-0.2663,-0.2653,-0.2636,-0.2624,-0.2585,-0.2575,-0.2559,-0.2537,-0.2533,-0.2516,-0.2494,-0.2494,-0.2532,-0.2537,-0.2542,-0.256,-0.2494,0,0,0,0,0,-0.2625,-0.2645,-0.2657,-0.267,-0.2675,-0.2669,-0.267,-0.2663,-0.2651,-0.2641,-0.2611,-0.2581,-0.2564,-0.2548,-0.2529,-0.2521,-0.2483,-0.2517,-0.2522,-0.2526,-0.2536,-0.2481,-0.2481,-0.2479,-0.2479,-0.2479,0,0,-0.2619,-0.2638,-0.2644,-0.267,-0.267,-0.269,-0.2665,-0.2672,-0.268,-0.2634,-0.2623,-0.2597,-0.2567,-0.2558,-0.2548,-0.2535,-0.2505,-0.2527,-0.2531,-0.254,-0.2482,-0.2482,-0.2482,-0.248,-0.248,-0.248,0,0,-0.2631,-0.264,-0.2664,-0.2681,-0.2696,-0.2699,-0.2702,-0.2702,-0.269,-0.2686,-0.2654,-0.2635,-0.2602,-0.2587,-0.2574,-0.2595,-0.2534,-0.2582,-0.2616,-0.2561,-0.2561,-0.256,-0.2505,-0.2499,-0.2581,-0.2581,-0.2581,0,-0.2621,-0.2657,-0.267,-0.2703,-0.271,-0.2705,-0.2724,-0.2728,-0.2718,-0.2707,-0.2685,-0.2642,-0.2619,-0.2609,-0.2622,-0.2605,-0.256,-0.2596,-0.2566,-0.2565,-0.2563,-0.2507,-0.2499,-0.2584,-0.2583,-0.2583,-0.2583,0,-0.2658,-0.2683,-0.2697,-0.2738,-0.2751,-0.2765,-0.2776,-0.2777,-0.2756,-0.275,-0.2726,-0.2696,-0.2666,-0.266,-0.2651,-0.2633,-0.2601,-0.2579,-0.2551,-0.2566,-0.2506,-0.2497,-0.2588,-0.2587,-0.2586,-0.2585,0,0,-0.2619,-0.2706,-0.2703,-0.2732,-0.2766,-0.2782,-0.2798,-0.2805,-0.2807,-0.2788,-0.2773,-0.2758,-0.273,-0.2716,-0.2691,-0.2659,-0.2614,-0.2622,-0.2617,-0.2566,-0.2484,-0.2424,-0.2408,-0.2577,-0.2576,-0.2575,-0.2445,0,-0.2629,-0.2704,-0.2733,-0.2777,-0.2809,-0.2817,-0.2835,-0.2844,-0.283,-0.282,-0.2787,-0.2765,-0.2754,-0.2731,-0.2702,-0.2639,-0.2594,-0.2651,-0.2479,-0.2475,-0.2417,-0.2397,-0.2171,-0.2034,-0.2436,-0.2435,-0.2434,0,-0.2629,-0.269,-0.2747,-0.2807,-0.2816,-0.2841,-0.2851,-0.2865,-0.2862,-0.2847,-0.2823,-0.2792,-0.2761,-0.2736,-0.263,-0.2662,-0.2583,-0.2529,-0.2521,-0.2444,-0.2398,-0.2085,-0.2002,-0.2418,-0.242,-0.2421,-0.2422,0,-0.2594,-0.2674,-0.2722,-0.2748,-0.2828,-0.2837,-0.2854,-0.2865,-0.2865,-0.2854,-0.2839,-0.2799,-0.275,-0.2672,-0.257,-0.259,-0.2432,-0.2435,-0.2303,-0.2298,-0.2063,-0.2039,-0.2342,-0.2342,-0.2343,-0.2343,-0.2343,0,-0.258,-0.2613,-0.2716,-0.2753,-0.2792,-0.2833,-0.2845,-0.2862,-0.2863,-0.2837,-0.2844,-0.2792,-0.2727,-0.2632,-0.2557,-0.2395,-0.2407,-0.2304,-0.2257,-0.2075,-0.2055,-0.2362,-0.2366,-0.2338,-0.2339,-0.234,-0.2341,0,-0.2531,-0.2599,-0.2671,-0.2767,-0.2786,-0.281,-0.2841,-0.2838,-0.2856,-0.2815,-0.2804,-0.2765,-0.2648,-0.2573,-0.2423,-0.2347,-0.2221,-0.2152,-0.1952,-0.1886,-0.2131,-0.2139,-0.2008,-0.2004,-0.2002,-0.1999,-0.1997,0,-0.2508,-0.2556,-0.2675,-0.2699,-0.274,-0.2777,-0.2781,-0.2821,-0.28,-0.2766,-0.2724,-0.2641,-0.2484,-0.2286,-0.2125,-0.1955,-0.2113,-0.173,-0.1746,-0.2127,-0.2095,-0.2108,-0.2119,-0.1442,-0.1435,-0.143,-0.1426,0,-0.2471,-0.2526,-0.2584,-0.2644,-0.2668,-0.2682,-0.2684,-0.266,-0.2656,-0.2602,-0.2462,-0.2334,-0.2149,-0.1851,-0.17,-0.1604,-0.1755,-0.1623,-0.2011,-0.1593,-0.159,-0.1562,-0.1591,-0.138,-0.1384,-0.1388,-0.139,-0.1392,-0.2411,-0.2442,-0.2505,-0.2539,-0.2561,-0.2497,-0.2417,-0.2381,-0.2269,-0.1994,-0.2057,-0.174,-0.1707,-0.1283,-0.1241,-0.1261,-0.1381,-0.1356,-0.1372,-0.1393,-0.1382,-0.1379,-0.1125,-0.1128,-0.113,-0.1133,-0.1135,0,-0.2295,-0.2332,-0.2375,-0.2373,-0.2301,-0.2375,-0.2273,-0.2084,-0.1831,-0.1589,-0.1328,-0.1042,-0.0814,-0.0904,-0.079,-0.0806,-0.0802,-0.0878,-0.0857,-0.0899,-0.0937,-0.0907,-0.0521,-0.052,-0.052,-0.0519,0,0,-0.2226,-0.2204,-0.2228,-0.2069,-0.2066,-0.1883,-0.1767,-0.1493,-0.1263,-0.0813,-0.058,-0.0354,-0.0616,-0.0424,-0.0488,-0.0489,-0.0677,-0.047,-0.0932,-0.0929,-0.0966,-0.1162,-0.1155,0,0,0,0,0]},{"header":{"parameterUnit":"m.s-1","parameterCategory":2,"la1":30.2991,"la2":30.254,"lo1":-89.0895,"lo2":-89.0444,"dy":0.0017,"dx":0.0017,"nx":28,"ny":28,"refTime":"2023-11-09T03:00:00:Z","depth":"2","parameterNumber":3,"parameterNumberName":"V-component_of_CURRENTS"},"data":[0,0,0,0,0,0,0,0,0,0,0,0,0,0,0,0,0,0,0,0,0,0,0,0,0,0,0,0,0,0,0,0,0,0,0,0,0,0,0,0,0,0,0,0,0,0,0,0,0,0,0,0,0,0,0,0,0,0,-0.0675,-0.0674,0,-0.0554,-0.0553,-0.0551,-0.0498,-0.0498,-0.0498,-0.0498,-0.0415,-0.0412,-0.041,0,0,0,0,0,0,0,0,0,0,0,0,0,-0.0739,-0.0739,-0.0676,-0.0674,-0.0673,-0.0554,-0.0553,-0.0551,-0.0498,-0.0498,-0.0498,-0.0498,-0.0416,-0.0413,-0.041,0,0,0,0,0,0,0,0,0,0,0,0,0,-0.0674,-0.0739,-0.0676,-0.0632,-0.0626,-0.0555,-0.0553,-0.0551,-0.0498,-0.0498,-0.0498,-0.0498,-0.0416,-0.0413,-0.041,-0.0383,0,0,-0.0399,-0.0397,0,0,0,0,0,0,0,0,-0.0678,-0.0672,-0.064,-0.0634,-0.0629,-0.0541,-0.0544,-0.0496,-0.0497,-0.0547,-0.0498,-0.0498,-0.046,-0.0453,-0.0429,-0.0379,-0.0376,-0.0398,-0.0396,-0.0395,-0.0394,0,0,0,0,0,0,0,-0.0683,-0.0676,-0.0628,-0.0638,-0.0631,-0.0576,-0.0568,-0.0534,-0.0504,-0.0542,-0.0538,-0.0524,-0.0458,-0.0433,-0.0427,-0.0374,-0.0399,-0.0395,-0.0393,-0.0392,-0.0255,-0.0253,0,0,0,0,0,0,-0.0704,-0.0681,-0.0631,-0.0624,-0.0654,-0.0575,-0.0566,-0.0569,-0.0504,-0.0494,-0.0524,-0.0522,-0.0439,-0.0431,-0.0424,-0.0365,-0.0395,-0.0391,-0.0389,-0.0256,-0.0254,-0.0253,0,0,0,0,0,0,-0.0706,-0.0701,-0.0636,-0.0648,-0.0636,-0.0575,-0.0577,-0.0567,-0.0542,-0.049,-0.048,-0.0511,-0.0439,-0.0429,-0.0389,-0.0362,-0.039,-0.0387,-0.0258,-0.0256,-0.0254,-0.0262,0,0,0,0,0,0,-0.0709,-0.0703,-0.0706,-0.0651,-0.0637,-0.0598,-0.0577,-0.0564,-0.0533,-0.0529,-0.0476,-0.0468,-0.0438,-0.0395,-0.0386,-0.0358,-0.0384,-0.026,-0.0257,-0.0254,-0.0263,-0.026,-0.0257,0,0,0,0,0,-0.0712,-0.0723,-0.0708,-0.0701,-0.0646,-0.0597,-0.0585,-0.054,-0.0533,-0.052,-0.0481,-0.0469,-0.037,-0.0391,-0.0381,-0.0351,-0.0261,-0.0258,-0.0255,-0.0265,-0.0261,-0.0257,0,0,0,0,0,0,-0.0748,-0.0716,-0.0699,-0.0699,-0.0651,-0.0588,-0.0573,-0.0544,-0.0501,-0.0502,-0.0458,-0.0446,-0.0396,-0.0374,-0.0398,-0.0301,-0.031,-0.0305,-0.0321,-0.0317,-0.0314,-0.0294,-0.0381,0,0,0,0,0,-0.0759,-0.0761,-0.0711,-0.0706,-0.069,-0.0632,-0.0606,-0.0576,-0.0532,-0.0514,-0.0469,-0.0422,-0.0371,-0.0349,-0.0303,-0.026,-0.0216,-0.023,-0.0227,-0.0225,-0.0199,-0.0107,-0.0093,-0.0242,-0.0242,-0.0242,0,0,-0.077,-0.0752,-0.0751,-0.0713,-0.0677,-0.065,-0.0617,-0.0584,-0.0548,-0.0512,-0.0456,-0.0412,-0.0357,-0.03,-0.0275,-0.0281,-0.0164,-0.022,-0.0219,-0.0194,-0.0102,-0.0087,-0.0074,-0.0239,-0.024,-0.024,0,0,-0.0793,-0.0779,-0.0787,-0.0749,-0.0701,-0.0665,-0.066,-0.0596,-0.0555,-0.0499,-0.0455,-0.0389,-0.0328,-0.0263,-0.0229,-0.018,-0.015,-0.0177,-0.0145,-0.0056,-0.0043,-0.0031,0.0017,0.0034,-0.0176,-0.0176,-0.0176,0,-0.0805,-0.0809,-0.0776,-0.0762,-0.0728,-0.0679,-0.066,-0.061,-0.0534,-0.049,-0.0486,-0.0339,-0.0298,-0.02,-0.0177,-0.017,-0.0134,-0.0171,-0.0052,-0.0039,-0.0027,0.0021,0.0039,-0.0176,-0.0176,-0.0176,-0.0176,0,-0.0826,-0.0818,-0.0817,-0.0788,-0.0746,-0.0724,-0.0652,-0.0604,-0.0556,-0.0496,-0.0387,-0.0308,-0.0216,-0.0192,-0.0169,-0.0054,-0.0064,-0.0062,-0.0066,-0.0012,0.0034,0.0053,-0.0176,-0.0176,-0.0176,-0.0176,0,0,-0.0878,-0.0845,-0.084,-0.082,-0.0757,-0.0724,-0.0661,-0.0582,-0.0532,-0.0438,-0.035,-0.0234,-0.0179,-0.0133,-0.0082,0.0003,0.0114,0.0007,0.0012,0.0048,0.0284,0.0168,0.0177,0.013,0.0134,0.0137,0.027,0,-0.0902,-0.0903,-0.0861,-0.0828,-0.0817,-0.0733,-0.0675,-0.0588,-0.051,-0.0416,-0.0295,-0.0204,-0.0162,-0.0113,-0.0015,0.0081,0.017,0.0077,0.0235,0.024,0.0124,0.0198,0.0107,0.0208,0.0289,0.0292,0.0295,0,-0.0929,-0.0927,-0.0919,-0.0846,-0.0829,-0.0792,-0.0681,-0.062,-0.0481,-0.0413,-0.0288,-0.0201,-0.0045,-0.0027,0.0194,0.0127,0.022,0.0292,0.0298,0.0214,0.0161,0.0175,0.0241,0.0327,0.0325,0.0322,0.032,0,-0.0987,-0.095,-0.095,-0.0926,-0.0848,-0.0803,-0.0749,-0.0623,-0.0555,-0.0409,-0.0343,-0.0163,-0.0063,0.0093,0.0243,0.023,0.0462,0.0457,0.0446,0.0437,0.0406,0.0386,0.0635,0.0635,0.0635,0.0634,0.0634,0,-0.1026,-0.1017,-0.0979,-0.0974,-0.0944,-0.0855,-0.0789,-0.0709,-0.0579,-0.0502,-0.0348,-0.0254,-0.0022,0.0128,0.0258,0.0397,0.0479,0.0479,0.0481,0.0394,0.0373,0.0515,0.0499,0.0639,0.0638,0.0637,0.0636,0,-0.1082,-0.1066,-0.1058,-0.0997,-0.0977,-0.095,-0.0837,-0.0782,-0.0659,-0.055,-0.0498,-0.0292,-0.0106,0.0098,0.0342,0.0398,0.0546,0.0577,0.0431,0.0412,0.0462,0.0445,0.0595,0.0593,0.059,0.0589,0.0587,0,-0.1113,-0.1127,-0.1097,-0.1094,-0.1068,-0.1017,-0.0976,-0.0846,-0.0779,-0.0586,-0.0537,-0.0326,-0.0226,0.0058,0.022,0.041,0.0519,0.0443,0.0411,0.048,0.0467,0.0453,0.0439,0.0371,0.0368,0.0366,0.0363,0,-0.117,-0.1166,-0.1164,-0.1176,-0.1148,-0.1097,-0.1025,-0.0983,-0.0823,-0.0747,-0.0623,-0.0542,-0.0296,-0.0139,0.009,0.0195,0.0395,0.0389,0.0561,0.0357,0.0269,0.0255,0.025,0.034,0.0342,0.0344,0.0345,0.0346,-0.1208,-0.123,-0.124,-0.1239,-0.1208,-0.1156,-0.1106,-0.1036,-0.0961,-0.0786,-0.0737,-0.0599,-0.0438,-0.0165,0.0009,0.0203,0.0198,0.0276,0.0285,0.0298,0.0209,0.0118,0.0144,0.0146,0.0147,0.0147,0.0148,0,-0.1258,-0.1278,-0.1295,-0.1283,-0.1256,-0.121,-0.1114,-0.1042,-0.0975,-0.0842,-0.0752,-0.0583,-0.0476,-0.0217,-0.0015,0.0068,0.0108,0.0164,0.0206,0.0222,0.0238,0.0152,0.007,0.0072,0.0073,0.0075,0,0,-0.1283,-0.1329,-0.134,-0.1324,-0.1292,-0.1204,-0.1134,-0.1028,-0.0908,-0.0762,-0.0653,-0.0617,-0.0455,-0.0279,-0.0152,-0.0009,0.0109,0.0014,0.0038,0.0082,0.0101,0.023,0.0102,0,0,0,0,0]}],[{"header":{"parameterUnit":"m.s-1","parameterCategory":2,"la1":30.2991,"la2":30.254,"lo1":-89.0895,"lo2":-89.0444,"dy":0.0017,"dx":0.0017,"nx":28,"ny":28,"refTime":"2023-11-09T03:00:00:Z","depth":"4","parameterNumber":2,"parameterNumberName":"U-component_of_CURRENTS"},"data":[0,0,0,0,0,0,0,0,0,0,0,0,0,0,0,0,0,0,0,0,0,0,0,0,0,0,0,0,0,0,0,0,0,0,0,0,0,0,0,0,0,0,0,0,0,0,0,0,0,0,0,0,0,0,0,0,0,0,-0.0839,-0.084,0,-0.08,-0.0798,-0.0796,-0.0727,-0.0727,-0.0728,-0.0728,-0.0894,-0.0897,-0.0901,0,0,0,0,0,0,0,0,0,0,0,0,0,-0.0723,-0.0725,-0.0839,-0.084,-0.0842,-0.08,-0.0798,-0.0795,-0.0727,-0.0727,-0.0728,-0.0729,-0.0892,-0.0897,-0.0901,0,0,0,0,0,0,0,0,0,0,0,0,0,-0.0718,-0.0725,-0.0839,-0.0818,-0.0817,-0.0801,-0.0798,-0.0794,-0.0726,-0.0727,-0.0728,-0.0729,-0.0891,-0.0896,-0.0902,-0.0919,0,0,-0.092,-0.0922,0,0,0,0,0,0,0,0,-0.0719,-0.072,-0.082,-0.082,-0.0819,-0.0787,-0.0818,-0.0854,-0.0726,-0.0739,-0.0728,-0.073,-0.089,-0.0896,-0.0854,-0.0927,-0.0934,-0.092,-0.0924,-0.0926,-0.0928,0,0,0,0,0,0,0,-0.0719,-0.0721,-0.0802,-0.0822,-0.0821,-0.0768,-0.0766,-0.0821,-0.0797,-0.0738,-0.0738,-0.0766,-0.0889,-0.0848,-0.0858,-0.0937,-0.092,-0.0925,-0.0929,-0.0931,-0.11,-0.1101,0,0,0,0,0,0,-0.0772,-0.0722,-0.0804,-0.0803,-0.0794,-0.0771,-0.0769,-0.0779,-0.0792,-0.08,-0.0766,-0.0764,-0.0838,-0.0851,-0.0864,-0.0985,-0.0926,-0.0931,-0.0935,-0.1099,-0.11,-0.1101,0,0,0,0,0,0,-0.0769,-0.0779,-0.0806,-0.0779,-0.0782,-0.0775,-0.0786,-0.0779,-0.0782,-0.0815,-0.0822,-0.0785,-0.0839,-0.0856,-0.0925,-0.0988,-0.0934,-0.0939,-0.1098,-0.1099,-0.1101,-0.1166,0,0,0,0,0,0,-0.0766,-0.0777,-0.0782,-0.0782,-0.0786,-0.0824,-0.0787,-0.0778,-0.0807,-0.0803,-0.0835,-0.0846,-0.0841,-0.0916,-0.0931,-0.0995,-0.0944,-0.1096,-0.1098,-0.11,-0.1162,-0.1169,-0.1175,0,0,0,0,0,-0.0761,-0.0765,-0.0781,-0.0792,-0.0799,-0.0828,-0.0821,-0.0805,-0.0808,-0.0808,-0.0822,-0.0848,-0.0939,-0.0922,-0.0939,-0.1006,-0.1095,-0.1098,-0.11,-0.1159,-0.1168,-0.1175,0,0,0,0,0,0,-0.0704,-0.0761,-0.0778,-0.0797,-0.0833,-0.0825,-0.0823,-0.0836,-0.0836,-0.0839,-0.0862,-0.0875,-0.0952,-0.0968,-0.0949,-0.1055,-0.1023,-0.1029,-0.1062,-0.1071,-0.1077,-0.1129,-0.0949,0,0,0,0,0,-0.0706,-0.0725,-0.0783,-0.0797,-0.0824,-0.0835,-0.0844,-0.0847,-0.0866,-0.0864,-0.0909,-0.0939,-0.0965,-0.1011,-0.103,-0.1109,-0.111,-0.116,-0.1167,-0.1172,-0.1223,-0.1212,-0.1223,-0.1109,-0.1109,-0.1109,0,0,-0.0692,-0.0726,-0.0737,-0.0789,-0.0803,-0.084,-0.0836,-0.0866,-0.09,-0.0892,-0.0954,-0.097,-0.0985,-0.1041,-0.1082,-0.1077,-0.1206,-0.1175,-0.118,-0.1229,-0.1216,-0.1227,-0.1237,-0.1111,-0.111,-0.111,0,0,-0.0681,-0.0708,-0.073,-0.0768,-0.0831,-0.0846,-0.0882,-0.0924,-0.0942,-0.1007,-0.0996,-0.1062,-0.1121,-0.1141,-0.1155,-0.1225,-0.1227,-0.1232,-0.1335,-0.1323,-0.1333,-0.1341,-0.1361,-0.137,-0.1252,-0.1252,-0.1252,0,-0.066,-0.0697,-0.0739,-0.0778,-0.0814,-0.0869,-0.0908,-0.0934,-0.0998,-0.1027,-0.1044,-0.1124,-0.1169,-0.1223,-0.126,-0.1249,-0.124,-0.1302,-0.1333,-0.1341,-0.1349,-0.1366,-0.1377,-0.1255,-0.1255,-0.1255,-0.1254,0,-0.0675,-0.0709,-0.0728,-0.0799,-0.0841,-0.0879,-0.0958,-0.1013,-0.1068,-0.1098,-0.1184,-0.1227,-0.1267,-0.131,-0.1329,-0.1412,-0.1387,-0.1325,-0.1315,-0.1365,-0.1379,-0.1389,-0.126,-0.1259,-0.1258,-0.1257,0,0,-0.0623,-0.0716,-0.0726,-0.0763,-0.0855,-0.0891,-0.0973,-0.105,-0.1082,-0.1187,-0.1227,-0.1352,-0.1375,-0.1397,-0.1422,-0.1492,-0.157,-0.147,-0.1467,-0.1497,-0.1564,-0.1345,-0.1334,-0.1494,-0.1496,-0.1498,-0.1553,0,-0.0623,-0.068,-0.0737,-0.0805,-0.0848,-0.0928,-0.0987,-0.1065,-0.1123,-0.1174,-0.1269,-0.1323,-0.1396,-0.143,-0.1497,-0.1527,-0.1598,-0.1563,-0.1509,-0.151,-0.1312,-0.1338,-0.1504,-0.156,-0.1562,-0.1564,-0.1565,0,-0.062,-0.0667,-0.0719,-0.0808,-0.0834,-0.0886,-0.0975,-0.1039,-0.1123,-0.115,-0.1228,-0.1284,-0.1425,-0.1454,-0.1576,-0.1538,-0.159,-0.1639,-0.1637,-0.1427,-0.1306,-0.1499,-0.1581,-0.158,-0.1579,-0.1578,-0.1577,0,-0.0549,-0.0652,-0.0687,-0.0721,-0.0831,-0.088,-0.0952,-0.1039,-0.1067,-0.1155,-0.1176,-0.1279,-0.1348,-0.1427,-0.1528,-0.1564,-0.1611,-0.1628,-0.1495,-0.148,-0.1636,-0.1626,-0.173,-0.1729,-0.1729,-0.1729,-0.1729,0,-0.0509,-0.0549,-0.0665,-0.0681,-0.0743,-0.0846,-0.0891,-0.0957,-0.101,-0.1003,-0.1166,-0.1164,-0.1356,-0.1396,-0.1484,-0.1468,-0.1543,-0.1539,-0.1475,-0.1661,-0.1653,-0.1643,-0.1632,-0.1731,-0.1731,-0.173,-0.173,0,-0.0429,-0.0491,-0.0539,-0.0655,-0.0703,-0.0753,-0.0856,-0.0864,-0.095,-0.0941,-0.0987,-0.1104,-0.1158,-0.1277,-0.1383,-0.1389,-0.141,-0.1385,-0.1575,-0.1515,-0.1335,-0.1328,-0.1314,-0.1307,-0.1301,-0.1295,-0.1291,0,-0.04,-0.0413,-0.0503,-0.0519,-0.0578,-0.0669,-0.0705,-0.0809,-0.0806,-0.0862,-0.0836,-0.094,-0.0999,-0.098,-0.1104,-0.1191,-0.1209,-0.1243,-0.1366,-0.1352,-0.1292,-0.1294,-0.1295,-0.1281,-0.1279,-0.1278,-0.1276,0,-0.0356,-0.0368,-0.0399,-0.0424,-0.0467,-0.052,-0.0591,-0.0573,-0.0651,-0.0717,-0.0675,-0.0737,-0.076,-0.0858,-0.0894,-0.0964,-0.1232,-0.1181,-0.1199,-0.1316,-0.1311,-0.1258,-0.1266,-0.1254,-0.1258,-0.126,-0.1261,0,-0.032,-0.0313,-0.0323,-0.035,-0.0385,-0.0395,-0.0437,-0.0453,-0.0483,-0.0548,-0.0488,-0.0582,-0.0663,-0.073,-0.0732,-0.0782,-0.0876,-0.0949,-0.0982,-0.1008,-0.0884,-0.0832,-0.0587,0,0,0,0,0,-0.0286,-0.0261,-0.0259,-0.0277,-0.0292,-0.0322,-0.0372,-0.0407,-0.0463,-0.0391,-0.0446,-0.0444,-0.0498,-0.0559,-0.0575,-0.0672,-0.0903,-0.0693,-0.1009,-0.1134,-0.1159,-0.1043,0,0,0,0,0,0,-0.0258,-0.0243,-0.0239,-0.0229,-0.0213,-0.0245,-0.027,-0.0292,-0.0286,-0.0325,-0.0364,-0.0407,-0.0487,-0.0462,-0.0554,-0.0577,-0.0771,-0.0747,-0.0746,-0.112,-0.1143,-0.1163,-0.1052,0,0,0,0,0]},{"header":{"parameterUnit":"m.s-1","parameterCategory":2,"la1":30.2991,"la2":30.254,"lo1":-89.0895,"lo2":-89.0444,"dy":0.0017,"dx":0.0017,"nx":28,"ny":28,"refTime":"2023-11-09T03:00:00:Z","depth":"4","parameterNumber":3,"parameterNumberName":"V-component_of_CURRENTS"},"data":[0,0,0,0,0,0,0,0,0,0,0,0,0,0,0,0,0,0,0,0,0,0,0,0,0,0,0,0,0,0,0,0,0,0,0,0,0,0,0,0,0,0,0,0,0,0,0,0,0,0,0,0,0,0,0,0,0,0,-0.0379,-0.0379,0,-0.0393,-0.0393,-0.0393,-0.0368,-0.0367,-0.0367,-0.0366,-0.0357,-0.0357,-0.0358,0,0,0,0,0,0,0,0,0,0,0,0,0,-0.0329,-0.033,-0.0379,-0.0379,-0.038,-0.0393,-0.0393,-0.0393,-0.0368,-0.0367,-0.0366,-0.0366,-0.0357,-0.0357,-0.0358,0,0,0,0,0,0,0,0,0,0,0,0,0,-0.0347,-0.0331,-0.0379,-0.037,-0.0369,-0.0393,-0.0393,-0.0393,-0.0368,-0.0367,-0.0366,-0.0365,-0.0357,-0.0357,-0.0358,-0.0383,0,0,-0.036,-0.036,0,0,0,0,0,0,0,0,-0.0346,-0.0348,-0.0371,-0.0371,-0.037,-0.0379,-0.0373,-0.0389,-0.0369,-0.0367,-0.0366,-0.0365,-0.0364,-0.0364,-0.0367,-0.0383,-0.0382,-0.036,-0.036,-0.036,-0.0361,0,0,0,0,0,0,0,-0.0345,-0.0348,-0.0383,-0.0371,-0.0371,-0.0365,-0.0366,-0.0376,-0.037,-0.0367,-0.0366,-0.037,-0.0363,-0.0367,-0.0367,-0.0382,-0.036,-0.036,-0.0361,-0.0361,-0.0431,-0.0432,0,0,0,0,0,0,-0.0347,-0.0347,-0.0383,-0.0384,-0.0357,-0.0367,-0.0368,-0.0376,-0.037,-0.0369,-0.0371,-0.0369,-0.0366,-0.0366,-0.0366,-0.0431,-0.036,-0.0361,-0.0361,-0.043,-0.0431,-0.0433,0,0,0,0,0,0,-0.0346,-0.0351,-0.0382,-0.0366,-0.037,-0.0369,-0.0378,-0.0377,-0.0379,-0.0374,-0.0371,-0.0374,-0.0365,-0.0365,-0.0392,-0.0429,-0.0361,-0.0362,-0.0428,-0.043,-0.0432,-0.0539,0,0,0,0,0,0,-0.0345,-0.035,-0.0359,-0.0367,-0.0371,-0.0402,-0.0379,-0.0378,-0.0384,-0.0381,-0.0376,-0.0374,-0.0364,-0.0391,-0.0392,-0.0429,-0.0362,-0.0426,-0.0429,-0.0431,-0.0534,-0.0544,-0.0554,0,0,0,0,0,-0.0343,-0.0368,-0.0359,-0.0364,-0.0383,-0.0404,-0.0406,-0.0399,-0.0386,-0.0395,-0.0399,-0.0374,-0.0409,-0.0393,-0.0394,-0.0432,-0.0425,-0.0428,-0.0431,-0.0529,-0.0542,-0.0554,0,0,0,0,0,0,-0.0353,-0.0368,-0.0359,-0.0387,-0.0393,-0.04,-0.0417,-0.0405,-0.0415,-0.0415,-0.0399,-0.04,-0.0437,-0.0417,-0.04,-0.0458,-0.041,-0.0414,-0.0484,-0.0496,-0.0506,-0.0524,-0.0363,0,0,0,0,0,-0.0359,-0.038,-0.0386,-0.0408,-0.0417,-0.0415,-0.0423,-0.0417,-0.0426,-0.0428,-0.0433,-0.0436,-0.0453,-0.046,-0.047,-0.0504,-0.0479,-0.0525,-0.0535,-0.0544,-0.0559,-0.0553,-0.0564,-0.0444,-0.0444,-0.0444,0,0,-0.037,-0.0379,-0.0392,-0.0411,-0.0419,-0.0446,-0.0417,-0.0438,-0.0461,-0.0428,-0.0474,-0.0476,-0.047,-0.0515,-0.0528,-0.0502,-0.0566,-0.0548,-0.0556,-0.0566,-0.0558,-0.057,-0.058,-0.0446,-0.0446,-0.0445,0,0,-0.0408,-0.0412,-0.0444,-0.0456,-0.0471,-0.0473,-0.048,-0.0495,-0.0505,-0.0542,-0.0532,-0.0561,-0.0578,-0.0595,-0.06,-0.067,-0.0622,-0.0664,-0.0732,-0.0727,-0.0737,-0.0745,-0.0732,-0.0738,-0.0667,-0.0667,-0.0667,0,-0.0419,-0.0454,-0.0455,-0.0488,-0.0508,-0.0489,-0.0527,-0.0539,-0.0561,-0.0584,-0.0567,-0.0629,-0.0621,-0.0685,-0.071,-0.0697,-0.0676,-0.0689,-0.0741,-0.0749,-0.0756,-0.0739,-0.0745,-0.0673,-0.0672,-0.0671,-0.0671,0,-0.0475,-0.0504,-0.0529,-0.0562,-0.0585,-0.0613,-0.063,-0.0659,-0.0665,-0.0674,-0.0739,-0.0749,-0.0781,-0.0787,-0.0771,-0.0828,-0.0792,-0.0757,-0.0712,-0.0775,-0.0753,-0.0757,-0.0681,-0.0679,-0.0677,-0.0676,0,0,-0.0494,-0.0556,-0.0563,-0.0591,-0.0625,-0.065,-0.0706,-0.0749,-0.0779,-0.0816,-0.0867,-0.0919,-0.0917,-0.0923,-0.0917,-0.0921,-0.0951,-0.0865,-0.0862,-0.0856,-0.0933,-0.0822,-0.0815,-0.092,-0.0921,-0.0922,-0.0899,0,-0.0533,-0.0605,-0.0629,-0.0698,-0.0738,-0.0756,-0.081,-0.0846,-0.0861,-0.0904,-0.0935,-0.0971,-0.0968,-0.0984,-0.1,-0.0958,-0.0966,-0.096,-0.087,-0.0867,-0.0764,-0.0817,-0.0926,-0.0902,-0.0903,-0.0903,-0.0904,0,-0.0573,-0.0618,-0.0697,-0.0771,-0.0792,-0.0835,-0.0906,-0.095,-0.0999,-0.101,-0.1062,-0.1057,-0.111,-0.1069,-0.1076,-0.1069,-0.102,-0.0983,-0.098,-0.0843,-0.0764,-0.0824,-0.091,-0.0909,-0.0909,-0.0908,-0.0908,0,-0.0572,-0.0662,-0.0726,-0.0751,-0.0834,-0.0887,-0.0936,-0.0991,-0.1021,-0.1074,-0.1087,-0.114,-0.1153,-0.1136,-0.1066,-0.1072,-0.1025,-0.1015,-0.0879,-0.087,-0.0929,-0.092,-0.101,-0.101,-0.101,-0.101,-0.101,0,-0.059,-0.0645,-0.0737,-0.0765,-0.0856,-0.0915,-0.0989,-0.1036,-0.1084,-0.109,-0.1148,-0.1141,-0.1164,-0.113,-0.1081,-0.0984,-0.1039,-0.0905,-0.0862,-0.0974,-0.097,-0.0931,-0.0923,-0.1009,-0.101,-0.101,-0.101,0,-0.0582,-0.0635,-0.0716,-0.0817,-0.0854,-0.0925,-0.1013,-0.1043,-0.1105,-0.1112,-0.1128,-0.1147,-0.1097,-0.1088,-0.1021,-0.0979,-0.0901,-0.0842,-0.0957,-0.0918,-0.0757,-0.0754,-0.0733,-0.0729,-0.0726,-0.0723,-0.072,0,-0.0583,-0.0625,-0.0736,-0.0774,-0.0826,-0.0923,-0.0967,-0.1046,-0.1048,-0.1074,-0.1054,-0.1041,-0.1028,-0.0897,-0.0875,-0.0802,-0.0771,-0.0754,-0.0788,-0.0771,-0.0732,-0.0734,-0.0736,-0.0715,-0.0714,-0.0713,-0.0712,0,-0.0581,-0.0625,-0.0677,-0.0755,-0.0816,-0.088,-0.0938,-0.0934,-0.0978,-0.1033,-0.096,-0.0921,-0.0856,-0.0811,-0.075,-0.0688,-0.0792,-0.0719,-0.0727,-0.0759,-0.0749,-0.0714,-0.0719,-0.0701,-0.0702,-0.0703,-0.0704,0,-0.057,-0.0603,-0.0655,-0.0733,-0.0789,-0.0807,-0.0857,-0.085,-0.0875,-0.0892,-0.0835,-0.0818,-0.0821,-0.0743,-0.0667,-0.0621,-0.0623,-0.0624,-0.0637,-0.065,-0.0626,-0.0601,-0.0482,0,0,0,0,0,-0.0545,-0.0569,-0.0622,-0.0687,-0.0733,-0.0769,-0.0809,-0.0842,-0.0866,-0.0794,-0.082,-0.0741,-0.0657,-0.0644,-0.0575,-0.0607,-0.0617,-0.0524,-0.0626,-0.0636,-0.0649,-0.0625,0,0,0,0,0,0,-0.0524,-0.0562,-0.06,-0.0626,-0.065,-0.0694,-0.0716,-0.0737,-0.0707,-0.0726,-0.0691,-0.0702,-0.0638,-0.0688,-0.0565,-0.0555,-0.0604,-0.0509,-0.0507,-0.0628,-0.064,-0.0651,-0.0631,0,0,0,0,0]}]]